Flag for U.S.A. Weather past 2 weeks in Harrisburg, Pennsylvania, U.S.A.

Now
71 °F

Scattered clouds.


Feels Like: 77 °F
Forecast: 48 / 71 °F
Wind: 7 mph from North

Location: Capital City Airport

Current Time: Sep 17, 2014 at 1:37:32 PM

Latest Report: Sep 17, 2014 at 12:56 PM


Visibility: 10 mi

Pressure: 30.03 "Hg

Humidity: 34%

Dew point: 41 °F

Location of HarrisburgLocation

Historic Weather in Harrisburg — Graph

°F

Harrisburg temperature yesterday

Maximum temperature yesterday: 72 °F (at 2:56 PM)
Minimum temperature yesterday: 54 °F (at 11:56 PM)
Average temperature yesterday: 62 °F

Past Weeks' High & Low Weather Summary

 TemperatureHumidityPressure
High90 °F (Sep 6, 3:56 PM)97% (Sep 6, 8:00 AM)30.35 "Hg (Sep 6, 8:00 AM)
Low46 °F (Sep 14, 5:56 AM)36% (Sep 7, 1:56 PM)29.83 "Hg (Sep 2, 4:56 PM)
Average68 °F71%30.10 "Hg
* Reported Sep 2 11:56 AM — Sep 17 11:56 AM, Harrisburg, Weather by CustomWeather, © 2014

Note: Actual official high and low records may vary slightly from our data, if they occured in-between our weather recording intervals... More about our weather records

Advertising

Harrisburg weather history for previous 24 hours

 ConditionsComfort  
Time TempWeatherWind HumidityBarometerVisibility
11:56 AM
Sep 17
69 °FScattered clouds.5 mph41%30.05 "Hg10 mi
10:56 AM66 °FPassing clouds.No wind52%30.07 "Hg10 mi
9:56 AM62 °FSunny.3 mph67%30.08 "Hg10 mi
8:56 AM58 °FSunny.No wind78%30.09 "Hg10 mi
7:56 AM54 °FPassing clouds.No wind83%30.08 "Hg10 mi
6:56 AM49 °FClear.No wind90%30.06 "Hg10 mi
5:56 AM50 °FClear.7 mph89%30.06 "Hg10 mi
4:56 AM50 °FClear.6 mph93%30.06 "Hg10 mi
3:56 AM51 °FPassing clouds.5 mph92%30.05 "Hg10 mi
2:56 AM51 °FClear.3 mph89%30.06 "Hg10 mi
1:56 AM52 °FClear.3 mph89%30.06 "Hg10 mi
12:56 AM53 °FPassing clouds.3 mph89%30.05 "Hg10 mi
11:56 PM
Sep 16
54 °FClear.3 mph86%30.05 "Hg10 mi
10:56 PM57 °FClear.5 mph81%30.04 "Hg10 mi
9:56 PM57 °FOvercast.5 mph81%30.04 "Hg10 mi
8:56 PM58 °FPassing clouds.3 mph78%30.04 "Hg10 mi
7:56 PM62 °FPassing clouds.No wind67%30.03 "Hg10 mi
6:56 PM69 °FPartly sunny.5 mph49%30.01 "Hg10 mi
5:56 PM72 °FOvercast.12 mph40%30.01 "Hg10 mi
4:56 PM71 °FOvercast.9 mph41%30.01 "Hg10 mi
3:56 PM70 °FPartly sunny.8 mph47%30.01 "Hg10 mi
2:56 PM72 °FScattered clouds.13 mph46%30.00 "Hg10 mi
1:56 PM69 °FOvercast.12 mph55%30.02 "Hg10 mi
Weather by CustomWeather, © 2014

See weather overviewHow to use our weather pages